Regional Weather Roundup
Issued by NWS

Home | Current Version | Previous Version | Graphics & Text | Print | Product List | Glossary On
Versions: 1 2 3 4 5 6 7 8 9 10 11 12 13 14 15 16 17 18 19 20 21 22 23 24 25 26 27 28 29 30 31 32 33 34 35 36 37 38 39 40 41 42 43 44 45 46 47 48 49 50
000
ASUS43 KIND 181859
RWRIN

WEATHER ROUNDUP FOR INDIANA
NATIONAL WEATHER SERVICE INDIANAPOLIS IN
200 PM EST SAT FEB 18 2017

NOTE: "FAIR" INDICATES FEW OR NO CLOUDS BELOW 12,000 FEET WITH NO
SIGNIFICANT WEATHER AND/OR OBSTRUCTIONS TO VISIBILITY.

* - STATION DOES NOT REPORT WEATHER SUCH AS PRECIPITATION OR FOG.

+ - STATION NOT QUALITY CONTROLLED BY THE NATIONAL WEATHER SERVICE.
    USE DATA WITH CAUTION...ESPECIALLY DEWPOINT AND RELATIVE
    HUMIDITY OBSERVATIONS.

INZ001>003-010>013-019-020-182000-
NORTHWEST INDIANA

CITY           SKY/WX    TMP DP  RH WIND       PRES   REMARKS
GARY /AIRPORT/ MOSUNNY   66  34  30 CALM      29.72F
MICHIGAN CITY+ SUNNY     63  37  39 W6        29.73F
RENSSELAER +   MOSUNNY   66  39  37 SW13      29.74F

$$

LMZ046-743>745-182000-
SOUTHERN LAKE MICHIGAN

STATION/POSITION TIME  TEMP    WIND        PRES    WAVE
                       AIR SEA DIR/SP/G            HT
                 (UTC) (F)     (DEG/KT/KT) (MB)    (FT)
BURNS HARBOR     1840   52      20/  3/  4 1007.5F
MICHIGAN CITY    1830   54     250/  9/  9   N/A

$$

INZ004-005-014>016-021>024-182000-
NORTH CENTRAL INDIANA

CITY           SKY/WX    TMP DP  RH WIND       PRES   REMARKS
ELKHART        SUNNY     63  39  42 W12       29.72F
GOSHEN         SUNNY     64  40  41 W13       29.72S
SOUTH BEND     SUNNY     62  40  44 NW9       29.73F
WARSAW +       SUNNY     63  39  42 SW13G21   29.72F

$$

INZ006>009-017-018-025>027-182000-
NORTHEAST INDIANA

CITY           SKY/WX    TMP DP  RH WIND       PRES   REMARKS
ANGOLA *+      SUNNY     64  55  72 W10       29.70S
FORT WAYNE     MOSUNNY   65  42  43 SW16      29.74S
KENDALLVILLE + SUNNY     65  40  40 W14       29.71S

$$

INZ028-029-035-036-043>045-051>053-182000-
WEST CENTRAL INDIANA

CITY           SKY/WX    TMP DP  RH WIND       PRES   REMARKS
LAFAYETTE      MOSUNNY   63  41  44 W14       29.76F
TERRE HAUTE    CLOUDY    64  41  42 SW9       29.79F

$$

INZ030>032-037>040-046>048-054>057-064-065-182000-
CENTRAL INDIANA

CITY           SKY/WX    TMP DP  RH WIND       PRES   REMARKS
CP ATTERBURY + SUNNY     64  37  36 W6        29.80F
COLUMBUS       SUNNY     63  39  42 SW12      29.79F
FRANKFORT +    MOSUNNY   66  42  42 W13       29.78S
INDIANAPOLIS   PTSUNNY   63  40  42 SW10      29.78F
-EAGLE CREEK   MOSUNNY   63  38  39 W7        29.77F
KOKOMO +       MOSUNNY   61  43  51 W10       29.76F
MT COMFORT *+  MOSUNNY   63  39  42 SW9       29.78F
SHELBYVILLE    SUNNY     64  39  39 SW8       29.78F

$$

INZ033-034-041-042-049-050-058-059-182000-
EAST CENTRAL INDIANA

CITY           SKY/WX    TMP DP  RH WIND       PRES   REMARKS
MUNCIE         SUNNY     65  38  36 SW10      29.76F

$$

INZ060-061-067>069-081>083-085>088-182000-
SOUTHWEST INDIANA

CITY           SKY/WX    TMP DP  RH WIND       PRES   REMARKS
EVANSVILLE     CLOUDY    55  45  68 SW20      29.86S
HUNTINGBURG *+ CLOUDY    57  45  62 S12       29.85S

$$

INZ062-063-066-070>080-084-089>092-182000-
SOUTH CENTRAL AND SOUTHEAST INDIANA

CITY           SKY/WX    TMP DP  RH WIND       PRES   REMARKS
BLOOMINGTON    CLOUDY    65  41  41 SW10      29.80F
MADISON *+     MOSUNNY   61  37  41 S12       29.85F

$$





USA.gov is the U.S. government's official web portal to all federal, state and local government web resources and services.